TimeCDT,TemperatureF,Dew PointF,Humidity,Sea Level PressureIn,VisibilityMPH,Wind Direction,Wind SpeedMPH,Gust SpeedMPH,PrecipitationIn,Events,Conditions,WindDirDegrees,DateUTC
12:52 AM,54.0,50.0,86,30.38,10.0,SSE,6.9,-,N/A,,Partly Cloudy,150,2012-09-14 05:52:00
1:52 AM,53.1,48.9,86,30.38,10.0,SSE,6.9,-,N/A,,Partly Cloudy,150,2012-09-14 06:52:00
2:52 AM,52.0,48.9,89,30.38,10.0,SSE,6.9,-,N/A,,Partly Cloudy,150,2012-09-14 07:52:00
3:52 AM,51.1,48.0,89,30.37,10.0,SSE,5.8,-,N/A,,Clear,150,2012-09-14 08:52:00
4:52 AM,51.1,48.0,89,30.36,10.0,SSE,8.1,-,N/A,,Clear,150,2012-09-14 09:52:00
5:52 AM,50.0,48.0,93,30.37,10.0,SE,6.9,-,N/A,,Clear,140,2012-09-14 10:52:00
6:52 AM,50.0,46.9,89,30.37,10.0,SSE,6.9,-,N/A,,Partly Cloudy,150,2012-09-14 11:52:00
7:52 AM,51.1,48.9,92,30.38,10.0,SSE,5.8,-,N/A,,Partly Cloudy,150,2012-09-14 12:52:00
8:52 AM,55.0,50.0,83,30.38,10.0,SSE,8.1,-,N/A,,Scattered Clouds,150,2012-09-14 13:52:00
9:52 AM,60.1,48.9,67,30.38,10.0,South,6.9,-,N/A,,Scattered Clouds,180,2012-09-14 14:52:00
10:52 AM,64.9,46.9,52,30.37,10.0,South,6.9,-,N/A,,Scattered Clouds,190,2012-09-14 15:52:00
11:52 AM,70.0,44.1,39,30.35,10.0,SSW,8.1,-,N/A,,Scattered Clouds,210,2012-09-14 16:52:00
12:52 PM,75.0,39.9,28,30.34,10.0,SSW,9.2,-,N/A,,Scattered Clouds,210,2012-09-14 17:52:00
1:52 PM,77.0,39.2,26,30.33,10.0,SSW,10.4,16.1,N/A,,Scattered Clouds,210,2012-09-14 18:52:00
2:52 PM,78.1,41.0,27,30.30,10.0,South,13.8,19.6,N/A,,Scattered Clouds,180,2012-09-14 19:52:00
3:52 PM,79.0,41.0,26,30.28,10.0,South,12.7,-,N/A,,Scattered Clouds,170,2012-09-14 20:52:00
4:52 PM,78.1,39.9,25,30.27,10.0,South,10.4,-,N/A,,Partly Cloudy,190,2012-09-14 21:52:00
5:52 PM,78.1,43.0,29,30.26,10.0,South,11.5,-,N/A,,Partly Cloudy,180,2012-09-14 22:52:00
6:52 PM,75.0,44.1,33,30.26,10.0,South,9.2,-,N/A,,Partly Cloudy,180,2012-09-14 23:52:00
7:52 PM,70.0,43.0,38,30.26,10.0,SSE,11.5,-,N/A,,Partly Cloudy,160,2012-09-15 00:52:00
8:52 PM,66.9,44.1,44,30.27,10.0,South,11.5,-,N/A,,Partly Cloudy,170,2012-09-15 01:52:00
9:52 PM,64.0,46.0,52,30.28,10.0,South,10.4,-,N/A,,Clear,170,2012-09-15 02:52:00
10:52 PM,60.1,46.9,62,30.29,10.0,SSE,6.9,-,N/A,,Clear,160,2012-09-15 03:52:00
11:52 PM,57.9,48.0,70,30.28,10.0,SSE,8.1,-,N/A,,Clear,160,2012-09-15 04:52:00